Terug naar catalogus

FENGYUN 1C DEB

ActiefSSO
NORAD 30241·DEBRIS·🇨🇳 China

Gelanceerd May 10, 1999 vanaf Taiyuan Satellite Launch Center

Loading…

Volgende Passages (komende 24 uur)

TLE

VersSource: Space-Track

Epoch: Sep 14, 2026, 21:00 UTC

1 30241U 99025XA  26257.87556265  .00000232  00000-0  14333-3 0  9995
2 30241  99.1871  40.8572 0146022  29.8565 122.1768 14.09816933  8035

Volg FENGYUN 1C DEB in realtime met AllMySat

Download on the App Store